STARLINK-1279, 45360

Orbit data source: Space-Track

STARLINK-1279, 45360 is a payload satellite owned by SpaceX/Seattle (US) in LEO that was launched on Wed, 18 Mar 2020 UTC via an FALCON 9 launch vehicle from the Air Force Eastern Test Range (AFETR). Payload-class satellites include a variety of spacecraft equipped with specific instruments for various scientific and technological missions. These include communications satellites like Starlink; space stations such as the ISS; scientific satellites like the Hubble; Earth observation satellites from companies like Planet Labs, Umbra, and HawkEye 360; GPS; miniature CubeSats for education and research; and military/defense satellites.

Loading next visibility...
Identifier
45360, 2020-019A
Orbit
LEO
Country
Flag of USUS
Related business
Manufacturer
SpaceX/Seattle
Mission
Partially operational Commercial Communications
Bus & Motor
STARLINK, Unknown motor
Mass
260 kg wet, ~248 kg dry
Launch date (UTC)
2020-03-18 (6 years ago)
Launch vehicle
FALCON 9
Launch site
Air Force Eastern Test Range (AFETR)
Object type
Payload
Rocket body
Debris
Shape & HBR
Box + 1 Pan, 10.1 m
Radar Cross Section
13.562 m², Large (>1 m²)

Expand to show TLE details & history
Last TLE update: 5 hours ago

TLE from 5 hours ago
0 STARLINK-1279
1 45360U 20019A   26170.33335648  .00089461  00000-0  45739-3 0  9990
2 45360  53.0351 317.6194 0001792  63.6679  86.9207 15.80616237  5897
Epoch: 2026-06-19T08:00Z
TLE epoch observation values (Epoch: 2026-06-19T08:00:01.999Z)
Latitude
23.14776°
Longitude
91.38812°
Altitude
329.395 km
Speed
7.714 km/s
True Right ascension
07h 55m 50s
True Declination
23° 00' 57"
Sunlit
Object was in daylight at epoch
Visualization orbit readout
Latitude
Unknown
Longitude
Unknown
Altitude
Unknown
Speed
Unknown
Apparent Right ascension
Unknown
Apparent Declination
Unknown
Sunlit
N/A
Visualization observer readout
Local Sidereal Time
00:18:31
Azimuth
Unknown
Elevation
Unknown
Doppler factor
Unknown
Orbital elements
Apogee altitude
330.181 km
Perigee altitude
327.777 km
Semi-major axis
6,707.116 km
Eccentricity
0.00018
Inclination
53.0351°
RAAN
317.6194°
Arg. of periapsis
63.6679°
True anomaly
86.94121°
Mean anomaly
86.9207°
Eccentric anomaly
86.93095°
Mean motion
3.95129 °/min
Orbital period
91.11 mins
BSTAR
0.00045739
Loading maneuver chart data...
Computing Atmospheric mass density...

Documentation

Showing up to 5 results
|